15P/Finlay (2014)

Japanese version
Home page
Updated on December 16, 2014

---------------------------------------------------------------------

* Profile

* Pictures

* Orbital Elements

Epoch 2014 Dec. 9.0 TT = JDT 2457000.5
T 2014 Dec. 27.05720 TT                                 MPC
q   0.9759020            (2000.0)            P               Q
n   0.15132251     Peri.  347.55336     +0.99936919     -0.02159429
a   3.4876564      Node    13.77772     +0.03281303     +0.86513095
e   0.7201840      Incl.    6.79896     -0.01358442     +0.50108095
P   6.51
From 277 observations 2002 Jan. 27-2014 June 23, mean residual 0".8.
     Nongravitational parameters A1 = +0.43, A2 = +0.0067.

* Finding Charts

* Magnitudes Graph

        m1 =  9.5 + 5 log d + 30.0 log r(t - 20)  [   , 20]  (             - 2015 Jan. 16)
        m1 =  9.4 + 5 log d + 25.0 log r(t - 20)  [ 20,145]  (2015 Jan. 16 - 2015 May  21)
        m1 = 13.2 + 5 log d + 10.0 log r          [145,   ]  (2015 May  21 -             )

---------------------------------------------------------------------

The orbital elements are published on M.P.E.C. 2014-N57.
The charts are made with StellaNavigator Ver.8 (AstroArts).
The magnitudes graphs are made with Comet for Windows.

---------------------------------------------------------------------

Copyright(C) Seiichi Yoshida (comet@aerith.net). All rights reserved.